Weather History for Avoca, PA

Change the Weather History Date:

Wednesday, December 5, 2012

  Actual Average Record
Temperature  
Mean Temperature 45 °F 34 °F  
Max Temperature 60 °F 41 °F 67 °F (2001)
Min Temperature 30 °F 27 °F 4 °F (1926)
Degree Days  
Heating Degree Days 20 31  
Month to date heating degree days 90 150  
Since 1 July heating degree days 1317 1463  
Cooling Degree Days 0 0  
Month to date cooling degree days 0 0  
Year to date cooling degree days 864 580  
Moisture  
Dew Point 35 °F    
Average Humidity 70    
Maximum Humidity 93    
Minimum Humidity 47    
Precipitation  
Precipitation 0.25 in 0.10 in 1.37 in (1938)
Month to date precipitation 0.31 0.50  
Year to date precipitation 34.48 36.08  
Sea Level Pressure  
Sea Level Pressure 30.08 in    
Wind  
Wind Speed 10 mph (NW)    
Max Wind Speed 26 mph    
Max Gust Speed 38 mph    
Visibility 9 miles    
Events Rain    
T = Trace of Precipitation, MM = Missing Value Source: NWS Daily Summary

Daily Weather History Graph

Daily Weather History Graph

Search for Another Location

Airport:

Trip Planner

Search our weather history database for the weather conditions in past years. The results will help you decide how hot, cold, wet, or windy it might be!

Date:

Astronomy

Dec. 05, 2012 Rise Set
Actual Time 7:13 AM EST 4:33 PM EST
Civil Twilight 6:42 AM EST 5:04 PM EST
Nautical Twilight 6:08 AM EST 5:39 PM EST
Astronomical Twilight 5:34 AM EST 6:12 PM EST
Moon 11:24 PM EST (12/5) 11:33 AM EST (12/5)
Length of Visible Light 10h 21m
Length of Day
9h 19m
Waning Gibbous, 60% of the Moon is Illuminated
Dec 5
Waning Gibbous
Dec 6
Last Quarter
Dec 13
New
Dec 20
First Quarter
Dec 28
Full

Hourly Weather History & Observations

Time (EST) Temp. Windchill Dew Point Humidity Pressure Visibility Wind Dir Wind Speed Gust Speed Precip Events Conditions
12:45 AM 53.6 °F - 46.4 °F 77% 29.94 in 10.0 mi NNW 19.6 mph 26.5 mph 0.00 in Rain Light Rain
12:54 AM 51.1 °F - 46.0 °F 83% 29.96 in 4.0 mi NNW 10.4 mph 27.6 mph 0.00 in Rain Rain
1:01 AM 50.0 °F - 46.4 °F 87% 29.97 in 2.5 mi NW 6.9 mph 17.3 mph 0.03 in Rain Heavy Rain
1:15 AM 50.0 °F - 46.4 °F 87% 29.98 in 4.0 mi Variable 3.5 mph 19.6 mph 0.08 in Rain Light Rain
1:54 AM 50.0 °F - 46.0 °F 86% 29.99 in 3.0 mi Calm Calm - 0.17 in Rain Rain
2:30 AM 48.2 °F - 46.4 °F 93% 30.00 in 8.0 mi Calm Calm - 0.03 in Rain Light Rain
2:41 AM 48.2 °F - 46.4 °F 93% 30.01 in 5.0 mi WNW 4.6 mph - 0.04 in Rain Light Rain
2:54 AM 48.0 °F - 45.0 °F 89% 30.01 in 5.0 mi NW 6.9 mph - 0.06 in Rain Rain
3:04 AM 48.2 °F - 44.6 °F 87% 30.02 in 7.0 mi West 3.5 mph - 0.01 in Rain Light Rain
3:17 AM 48.2 °F - 44.6 °F 87% 30.01 in 8.0 mi Calm Calm - 0.02 in Rain Light Rain
3:54 AM 48.0 °F - 44.1 °F 86% 29.99 in 10.0 mi Calm Calm - 0.02 in   Overcast
4:50 AM 46.4 °F 45.2 °F 44.6 °F 93% 29.99 in 10.0 mi West 3.5 mph - N/A   Mostly Cloudy
4:54 AM 46.0 °F 44.8 °F 45.0 °F 96% 30.00 in 10.0 mi West 3.5 mph - N/A   Mostly Cloudy
5:05 AM 46.4 °F - 44.6 °F 93% 30.00 in 10.0 mi Calm Calm - N/A   Mostly Cloudy
5:17 AM 46.4 °F - 44.6 °F 93% 30.00 in 10.0 mi Calm Calm - N/A   Overcast
5:38 AM 46.4 °F 41.9 °F 39.2 °F 76% 30.01 in 10.0 mi West 9.2 mph - N/A   Scattered Clouds
5:54 AM 45.0 °F 40.1 °F 39.9 °F 82% 30.02 in 10.0 mi WSW 9.2 mph - N/A   Clear
6:24 AM 44.6 °F 40.2 °F 39.2 °F 81% 30.03 in 10.0 mi West 8.1 mph - N/A   Mostly Cloudy
6:54 AM 44.6 °F 40.7 °F 39.2 °F 81% 30.05 in 10.0 mi West 6.9 mph - N/A   Overcast
7:54 AM 44.1 °F 42.5 °F 37.9 °F 79% 30.07 in 10.0 mi West 3.5 mph - N/A   Mostly Cloudy
9:54 AM 44.1 °F 40.1 °F 35.1 °F 71% 30.09 in 10.0 mi WSW 6.9 mph - N/A   Mostly Cloudy
10:54 AM 45.0 °F 41.2 °F 34.0 °F 65% 30.08 in 10.0 mi West 6.9 mph - N/A   Overcast
11:54 AM 45.0 °F 40.1 °F 30.0 °F 56% 30.07 in 10.0 mi WNW 9.2 mph 19.6 mph N/A   Overcast
12:54 PM 45.0 °F 38.5 °F 30.9 °F 58% 30.07 in 10.0 mi NNW 13.8 mph - N/A   Overcast
1:54 PM 43.0 °F 36.0 °F 30.9 °F 62% 30.08 in 10.0 mi NNW 13.8 mph 26.5 mph N/A   Mostly Cloudy
2:54 PM 42.1 °F 33.1 °F 27.0 °F 55% 30.11 in 10.0 mi NNW 20.7 mph 28.8 mph N/A   Mostly Cloudy
3:54 PM 37.0 °F 26.7 °F 21.0 °F 52% 30.16 in 10.0 mi NW 19.6 mph 29.9 mph N/A   Mostly Cloudy
4:54 PM 36.0 °F 25.6 °F 18.0 °F 48% 30.19 in 10.0 mi NW 18.4 mph 27.6 mph N/A   Mostly Cloudy
5:54 PM 35.1 °F 25.2 °F 21.0 °F 57% 30.22 in 10.0 mi NW 16.1 mph 26.5 mph N/A   Overcast
6:54 PM 34.0 °F 25.5 °F 21.0 °F 59% 30.25 in 10.0 mi NW 11.5 mph - N/A   Overcast
7:54 PM 33.1 °F 23.4 °F 19.9 °F 59% 30.26 in 10.0 mi NNW 13.8 mph 21.9 mph N/A   Overcast
8:54 PM 30.9 °F 20.7 °F 16.0 °F 54% 30.29 in 10.0 mi NNW 13.8 mph - N/A   Overcast
9:54 PM 30.0 °F 20.0 °F 18.0 °F 61% 30.29 in 10.0 mi NNW 12.7 mph 21.9 mph N/A   Overcast
10:54 PM 30.0 °F 21.1 °F 18.0 °F 61% 30.30 in 10.0 mi NNW 10.4 mph - N/A   Overcast
11:54 PM 30.0 °F 23.2 °F 19.0 °F 64% 30.29 in 10.0 mi NNW 6.9 mph - N/A   Overcast